STARLINK-35094, 65395

Orbit data source: Space-Track

STARLINK-35094, 65395 is a payload satellite owned by SpaceX/Seattle (US) in SSO that was launched on Sat, 30 Aug 2025 UTC via an FALCON 9 launch vehicle from the Air Force Western Test Range (AFWTR). Payload-class satellites include a variety of spacecraft equipped with specific instruments for various scientific and technological missions. These include communications satellites like Starlink; space stations such as the ISS; scientific satellites like the Hubble; Earth observation satellites from companies like Planet Labs, Umbra, and HawkEye 360; GPS; miniature CubeSats for education and research; and military/defense satellites.

Loading next visibility...
Identifier
65395, 2025-191S
Orbit
SSO
Country
Flag of USUS
Related business
Manufacturer
SpaceX/Seattle
Mission
Operational Commercial Communications
Bus & Motor
STARLINK V2MO, Unknown motor
Mass
575 kg wet, ~530 kg dry
Launch date (UTC)
2025-08-30 (7 months ago)
Launch vehicle
FALCON 9
Launch site
Air Force Western Test Range (AFWTR)
Object type
Payload
Rocket body
Debris
Shape & HBR
Box + 2 Pan, 17.7 m
Radar Cross Section
36.964 m², Large (>1 m²)

Expand to show TLE details & history
Last TLE update: 14 hours ago

TLE from 14 hours ago
0 STARLINK-35094
1 65395U 25191S   26093.65029737  .00019551  00000-0  13533-2 0  9993
2 65395  97.6016 326.1011 0002534  85.9328 274.2189 15.05706922 34032
Epoch: 2026-04-03T15:36Z
TLE epoch observation values (Epoch: 2026-04-03T15:36:25.692Z)
Latitude
0.00002°
Longitude
-99.98733°
Altitude
552.273 km
Speed
7.586 km/s
True Right ascension
21h 44m 24s
True Declination
0° 00' 00"
Sunlit
Object was in daylight at epoch
Visualization orbit readout
Latitude
Unknown
Longitude
Unknown
Altitude
Unknown
Speed
Unknown
Apparent Right ascension
Unknown
Apparent Declination
Unknown
Sunlit
N/A
Visualization observer readout
Local Sidereal Time
11:31:51
Azimuth
Unknown
Elevation
Unknown
Doppler factor
Unknown
Orbital elements
Apogee altitude
548.085 km
Perigee altitude
544.575 km
Semi-major axis
6,924.467 km
Eccentricity
0.00025
Inclination
97.6016°
RAAN
326.1011°
Arg. of periapsis
85.9328°
True anomaly
274.18994°
Mean anomaly
274.2189°
Eccentric anomaly
274.20442°
Mean motion
3.76672 °/min
Orbital period
95.57 mins
BSTAR
0.0013533
Loading maneuver chart data...
Computing Atmospheric mass density...
Loading historical data...
Loading historical data...
Loading historical data...
Loading historical data...
Loading historical data...
Loading historical data...
Loading historical data...

Documentation

Showing up to 5 results
|